Showing default

SERVIS 2, 36588

Orbit data source: Space-Track

SERVIS 2, 36588 is a payload satellite owned by USEF (JP) in SSO that was launched on Wed, 02 Jun 2010 UTC via an ROKOT launch vehicle from the Plesetsk Missile And Space Complex (PKMTR). Payload-class satellites include a variety of spacecraft equipped with specific instruments for various scientific and technological missions. These include communications satellites like Starlink; space stations such as the ISS; scientific satellites like the Hubble; Earth observation satellites from companies like Planet Labs, Umbra, and HawkEye 360; GPS; miniature CubeSats for education and research; and military/defense satellites.

Loading next visibility...
Identifier
36588, 2010-023A
Orbit
SSO
Country
Flag of JPJP / JPN
Related business
Manufacturer
MELCO
Mission
Operational Commercial Technology
Bus & Motor
SERVIS, Unknown motor
Mass
740 kg wet, ~700 kg dry
Launch date (UTC)
2010-06-02 (16 years ago)
Launch vehicle
ROKOT
Launch site
Plesetsk Missile And Space Complex (PKMTR)
Object type
Payload
Rocket body
Debris
Shape & HBR
Box + 2 Pan, 5.1 m
Radar Cross Section
8.092 m², Large (>1 m²)

Expand to show TLE details & history
Last TLE update: 2 days ago

TLE from 2 days ago
0 SERVIS 2
1 36588U 10023A   26171.40965229 -.00000005  00000-0  10530-3 0  9998
2 36588 100.4281 359.0710 0016633 267.3992 158.3703 13.16053597771192
Epoch: 2026-06-20T09:49Z
TLE epoch observation values (Epoch: 2026-06-20T09:49:53.957Z)
Latitude
63.89734°
Longitude
-78.97465°
Altitude
1,222.442 km
Speed
7.243 km/s
True Right ascension
22h 28m 29s
True Declination
63° 46' 10"
Sunlit
Object was in daylight at epoch
Visualization orbit readout
Latitude
Unknown
Longitude
Unknown
Altitude
Unknown
Speed
Unknown
Apparent Right ascension
Unknown
Apparent Declination
Unknown
Sunlit
N/A
Visualization observer readout
Local Sidereal Time
00:50:21
Azimuth
Unknown
Elevation
Unknown
Doppler factor
Unknown
Orbital elements
Apogee altitude
1,209.817 km
Perigee altitude
1,184.616 km
Semi-major axis
7,575.353 km
Eccentricity
0.00166
Inclination
100.4281°
RAAN
359.071°
Arg. of periapsis
267.3992°
True anomaly
158.44042°
Mean anomaly
158.3703°
Eccentric anomaly
158.40537°
Mean motion
3.29184 °/min
Orbital period
109.36 mins
BSTAR
0.0001053
Loading maneuver chart data...
Computing Atmospheric mass density...
Loading historical data...
Loading historical data...
Loading historical data...
Loading historical data...
Loading historical data...
Loading historical data...
Loading historical data...
Other satellites on launch #23 in the year 2010 (2010-06-02 UTC)

Documentation

Showing up to 5 results
|